Weather History for Lexington, KY

Change the Weather History Date:

Thursday, January 31, 2013

  Actual Average Record
Temperature  
Mean Temperature 27 °F 34 °F  
Max Temperature 34 °F 42 °F 71 °F (2002)
Min Temperature 20 °F 25 °F -10 °F (1965)
Degree Days  
Heating Degree Days 38 31  
Month to date heating degree days 903 990  
Since 1 July heating degree days 2679 2783  
Cooling Degree Days 0 0  
Month to date cooling degree days 0 0  
Year to date cooling degree days 0 0  
Moisture  
Dew Point 22 °F    
Average Humidity 80    
Maximum Humidity 100    
Minimum Humidity 59    
Precipitation  
Precipitation 0.07 in 0.12 in 2.13 in (1951)
Month to date precipitation 4.46 3.20  
Year to date precipitation 4.46 3.20  
Snow  
Snow 2.00 in 0.20 in 5.00 in (1948)
Month to date snowfall 2.5 3.9  
Since 1 July snowfall 5.9 6.7  
Snow Depth 0.00 in    
Sea Level Pressure  
Sea Level Pressure 29.93 in    
Wind  
Wind Speed 16 mph (West)    
Max Wind Speed 35 mph    
Max Gust Speed 43 mph    
Visibility 6 miles    
Events Fog , Snow    
T = Trace of Precipitation, MM = Missing Value Source: NWS Daily Summary

Daily Weather History Graph

Daily Weather History Graph

Search for Another Location

Airport:

Trip Planner

Search our weather history database for the weather conditions in past years. The results will help you decide how hot, cold, wet, or windy it might be!

Date:

Astronomy

Jan. 31, 2013 Rise Set
Actual Time 7:43 AM EST 6:00 PM EST
Civil Twilight 7:15 AM EST 6:28 PM EST
Nautical Twilight 6:44 AM EST 7:00 PM EST
Astronomical Twilight 6:13 AM EST 7:31 PM EST
Moon 10:56 PM EST (1/31) 9:48 AM EST (1/31)
Length of Visible Light 11h 12m
Length of Day
10h 17m
Waning Gibbous, 80% of the Moon is Illuminated
Jan 31
Waning Gibbous
Feb 3
Last Quarter
Feb 10
New
Feb 17
First Quarter
Feb 25
Full

Hourly Weather History & Observations

Time (EST) Temp. Windchill Dew Point Humidity Pressure Visibility Wind Dir Wind Speed Gust Speed Precip Events Conditions
12:54 AM 30.9 °F 19.4 °F 24.1 °F 76% 29.72 in 10.0 mi West 17.3 mph 33.4 mph 0.00 in   Overcast
1:10 AM 30.2 °F 17.1 °F 24.8 °F 80% 29.72 in 10.0 mi West 21.9 mph 35.7 mph N/A   Overcast
1:32 AM 30.2 °F 18.9 °F 24.8 °F 80% 29.74 in 10.0 mi West 16.1 mph 31.1 mph N/A   Overcast
1:54 AM 30.9 °F 19.8 °F 24.1 °F 76% 29.75 in 10.0 mi West 16.1 mph 32.2 mph 0.00 in Snow Light Snow
2:54 AM 30.0 °F 17.2 °F 23.0 °F 75% 29.79 in 9.0 mi West 20.7 mph 36.8 mph 0.00 in Snow Light Snow
3:54 AM 28.0 °F 15.3 °F 19.9 °F 72% 29.81 in 10.0 mi West 18.4 mph 27.6 mph N/A   Overcast
4:54 AM 28.0 °F 15.7 °F 19.9 °F 72% 29.83 in 10.0 mi West 17.3 mph 24.2 mph N/A   Overcast
5:05 AM 28.4 °F 16.2 °F 21.2 °F 74% 29.81 in 10.0 mi West 17.3 mph 23.0 mph N/A   Overcast
5:54 AM 28.0 °F 16.1 °F 18.0 °F 66% 29.85 in 10.0 mi West 16.1 mph 26.5 mph N/A   Overcast
6:42 AM 28.4 °F 17.0 °F 19.4 °F 69% 29.85 in 10.0 mi WSW 15.0 mph 21.9 mph N/A   Overcast
6:54 AM 28.0 °F 15.7 °F 19.9 °F 72% 29.87 in 10.0 mi WSW 17.3 mph 26.5 mph N/A   Overcast
7:04 AM 28.4 °F 15.4 °F 17.6 °F 64% 29.86 in 10.0 mi West 19.6 mph 34.5 mph N/A   Overcast
7:54 AM 27.0 °F 14.3 °F 18.0 °F 69% 29.91 in 10.0 mi West 17.3 mph 28.8 mph N/A   Overcast
8:54 AM 28.0 °F 14.9 °F 17.1 °F 63% 29.94 in 10.0 mi West 19.6 mph 29.9 mph N/A   Overcast
9:43 AM 26.6 °F 14.3 °F 19.4 °F 74% 29.95 in 2.5 mi West 16.1 mph 26.5 mph 0.00 in Snow Light Snow
9:54 AM 26.1 °F 15.0 °F 21.9 °F 84% 29.98 in 1.0 mi West 12.7 mph 21.9 mph 0.00 in Snow Light Snow
10:01 AM 26.6 °F 15.2 °F 21.2 °F 80% 29.96 in 3.0 mi West 13.8 mph - 0.00 in Snow Light Snow
10:33 AM 26.6 °F 16.2 °F 23.0 °F 86% 29.97 in 2.0 mi West 11.5 mph - 0.00 in Snow Light Snow
10:54 AM 26.1 °F 13.6 °F 21.9 °F 84% 30.00 in 8.0 mi West 16.1 mph - 0.00 in   Overcast
11:08 AM 26.6 °F 15.7 °F 21.2 °F 80% 29.98 in 2.0 mi WSW 12.7 mph 23.0 mph 0.00 in Snow Light Snow
11:22 AM 26.6 °F 16.2 °F 23.0 °F 86% 29.98 in 8.0 mi WSW 11.5 mph - 0.00 in   Overcast
11:54 AM 28.0 °F 17.0 °F 21.0 °F 75% 30.01 in 10.0 mi West 13.8 mph 21.9 mph 0.00 in   Overcast
12:29 PM 28.4 °F 15.8 °F 21.2 °F 74% 29.98 in 3.0 mi WSW 18.4 mph 25.3 mph 0.00 in Snow Light Snow
12:54 PM 28.9 °F 16.1 °F 23.0 °F 78% 30.00 in 3.0 mi WSW 19.6 mph 24.2 mph 0.00 in Snow Light Snow
1:03 PM 28.4 °F 18.0 °F 21.2 °F 74% 29.97 in 3.0 mi WSW 12.7 mph 24.2 mph 0.00 in Snow Light Snow
1:13 PM 28.4 °F 15.4 °F 23.0 °F 80% 29.97 in 3.0 mi WSW 19.6 mph 25.3 mph 0.00 in Snow Light Snow
1:40 PM 30.2 °F 19.3 °F 24.8 °F 80% 29.96 in 2.5 mi WSW 15.0 mph 21.9 mph 0.00 in Snow Light Snow
1:47 PM 28.4 °F 17.5 °F 21.2 °F 74% 29.96 in 8.0 mi West 13.8 mph 25.3 mph 0.00 in Snow Light Snow
1:54 PM 28.9 °F 17.3 °F 21.9 °F 75% 29.98 in 9.0 mi WSW 16.1 mph 23.0 mph 0.00 in   Overcast
2:16 PM 30.2 °F 20.2 °F 21.2 °F 69% 29.95 in 10.0 mi WSW 12.7 mph 23.0 mph 0.00 in   Overcast
2:24 PM 30.2 °F 17.4 °F 19.4 °F 64% 29.94 in 10.0 mi WSW 20.7 mph 29.9 mph 0.00 in   Overcast
2:54 PM 30.9 °F 19.1 °F 19.9 °F 64% 29.97 in 10.0 mi West 18.4 mph 25.3 mph 0.00 in   Mostly Cloudy
3:54 PM 32.0 °F 22.1 °F 19.0 °F 59% 29.97 in 10.0 mi West 13.8 mph 26.5 mph N/A   Overcast
4:54 PM 32.0 °F 24.2 °F 21.0 °F 64% 29.96 in 10.0 mi WSW 9.2 mph 19.6 mph N/A   Overcast
5:54 PM 32.0 °F 24.2 °F 21.0 °F 64% 29.96 in 10.0 mi WSW 9.2 mph 19.6 mph N/A   Overcast
6:54 PM 32.0 °F 23.0 °F 21.9 °F 66% 29.97 in 10.0 mi WSW 11.5 mph - N/A   Overcast
7:54 PM 32.0 °F 23.0 °F 23.0 °F 69% 29.97 in 10.0 mi West 11.5 mph - N/A   Overcast
8:32 PM 30.2 °F 20.8 °F 24.8 °F 80% 29.93 in 2.0 mi WSW 11.5 mph 20.7 mph 0.00 in Snow Light Snow
8:39 PM 30.2 °F 20.2 °F 26.6 °F 86% 29.93 in 2.5 mi WSW 12.7 mph 19.6 mph 0.00 in Snow Light Snow
8:50 PM 30.2 °F 19.3 °F 26.6 °F 86% 29.93 in 1.2 mi WSW 15.0 mph - 0.00 in Snow Light Snow
8:54 PM 30.0 °F 21.1 °F 27.0 °F 88% 29.96 in 1.0 mi West 10.4 mph - 0.00 in Snow Light Snow
9:00 PM 28.4 °F 19.7 °F 28.4 °F 100% 29.93 in 1.0 mi West 9.2 mph - 0.00 in Snow Light Snow
9:41 PM 30.2 °F 23.4 °F 28.4 °F 93% 29.91 in 2.5 mi SW 6.9 mph - 0.02 in Snow Light Snow
9:54 PM 30.0 °F 21.1 °F 28.9 °F 96% 29.94 in 2.5 mi SW 10.4 mph - 0.02 in Snow Light Snow
10:08 PM 30.2 °F 20.2 °F 28.4 °F 93% 29.92 in 0.8 mi WSW 12.7 mph - 0.01 in Snow Light Snow
10:10 PM 30.2 °F 20.2 °F 28.4 °F 93% 29.92 in 0.8 mi WSW 12.7 mph - 0.01 in Snow Light Snow
10:31 PM 30.2 °F 17.4 °F 28.4 °F 93% 29.93 in 0.8 mi West 20.7 mph 27.6 mph 0.03 in Snow Light Snow
10:44 PM 28.4 °F 17.5 °F 28.4 °F 100% 29.94 in 0.5 mi WNW 13.8 mph 21.9 mph 0.05 in Fog , Snow Snow
10:54 PM 21.9 °F 5.1 °F 21.0 °F 96% 30.01 in 0.2 mi NW 25.3 mph 42.6 mph 0.05 in Fog , Snow Heavy Snow
11:00 PM 21.2 °F 4.5 °F 21.2 °F 100% 29.98 in 0.5 mi NW 24.2 mph 41.4 mph 0.00 in Fog , Snow Snow
11:06 PM 21.2 °F 5.6 °F 21.2 °F 100% 29.99 in 1.0 mi NW 20.7 mph 34.5 mph 0.00 in Snow Light Snow
11:17 PM 21.2 °F 6.4 °F 19.4 °F 93% 30.00 in 2.0 mi NW 18.4 mph 38.0 mph 0.00 in Snow Light Snow
11:36 PM 21.2 °F 7.8 °F 17.6 °F 86% 30.02 in 1.8 mi WNW 15.0 mph 27.6 mph 0.00 in Snow Light Snow
11:46 PM 21.2 °F 6.4 °F 17.6 °F 86% 30.02 in 2.0 mi NW 18.4 mph 24.2 mph 0.00 in Snow Light Snow
11:54 PM 19.9 °F 4.8 °F 17.1 °F 89% 30.06 in 1.8 mi NW 18.4 mph 24.2 mph 0.00 in Snow Light Snow